TIME,DELAY(SENSOR),PRES,OXYGEN,RAWTEMP,T(OPTODE),TCPHASE,FLUOR,BETA(BETA700),BETA(BETA412),BETA(BETA440),CDOM,C(CSC),ED(ED412.20),ED(ED444.00),ED(ED489.60),ED(ED554.30),LU(LU412.10),LU(LU443.90),LU(LU489.70),LU(LU554.70),COMP,TILTX,TILTY,CHECK
1368763240,5811,890.7600097656250000,32.3786888122558600,561.3444213867188000,4.4442229270935060,56.7150993347168000,55,98,100,78,81,15653,0,0,0,0,2147127936,2147767890,2147575030,2147568530,3061,2,13,33164
1368766836,5811,953.8499755859375000,37.0537681579589840,568.0831298828125000,4.2351131439208980,56.0401687622070300,54,97,100,78,81,15629,0,0,0,0,2147126290,2147772827,2147572214,2147569106,2639,2,13,26147
1368770436,5810,954.6900024414062000,34.8099517822265600,569.3251953125000000,4.1965289115905760,56.4081192016601560,54,98,99,78,81,15629,0,0,0,0,2147123264,2147768448,2147571008,2147565622,574,3,13,42724
1368774036,5813,988.8699951171875000,39.0874900817871100,571.4525146484375000,4.1304168701171875,55.7659187316894500,55,98,100,78,83,15629,0,0,0,0,2147122697,2147765010,2147571949,2147567341,61,2,13,7431
1368777636,5807,989.7500000000000000,38.9271392822265600,572.2612304687500000,4.1052699089050290,55.8036117553710940,54,98,99,78,82,15625,0,0,0,0,2147123702,2147770313,2147576192,2147566902,309,2,13,44826
1368781236,5811,997.5499877929688000,38.9372406005859400,572.2360229492188000,4.1060562133789060,55.7962799072265600,54,98,99,77,82,15627,0,0,0,0,2147125778,2147772928,2147570998,2147565586,132,3,13,45666
1368784836,5808,987.3800048828125000,40.4912910461425800,573.0919189453125000,4.0794391632080080,55.5741691589355500,55,100,100,77,81,15627,0,0,0,0,2147121289,2147770313,2147573933,2147567149,178,2,13,57669
1368788436,5808,994.8699951171875000,40.1563987731933600,572.7213134765625000,4.0909628868103030,55.6252593994140600,55,99,99,78,82,15626,0,0,0,0,2147124013,2147771136,2147573293,2147567990,3580,2,13,10293
1368792036,5807,995.0999755859375000,40.3460998535156250,573.1857299804688000,4.0765209197998050,55.6008300781250000,54,99,99,77,81,15627,0,0,0,0,2147123236,2147773321,2147576365,2147566144,161,2,13,35183
1368795636,5811,995.5100097656250000,38.1136207580566400,573.8519897460938000,4.0557961463928220,55.9389495849609400,55,100,98,79,81,15628,0,0,0,0,2147124818,2147770788,2147576329,2147566592,149,2,13,17257
1368799236,5809,1001.7199707031250000,41.6844596862793000,573.5767211914062000,4.0643582344055180,55.4030494689941400,55,97,100,79,82,15627,0,0,0,0,2147125229,2147768795,2147573184,2147567341,396,2,13,53507
1368802836,5806,1002.4000244140625000,39.2732505798339840,573.2398071289062000,4.0748372077941895,55.7596206665039060,54,101,100,77,81,15625,0,0,0,0,2147123291,2147773193,2147571382,2147568192,507,2,13,30542
1368806436,5811,1005.2299804687500000,37.3927307128906250,572.7279052734375000,4.0907588005065920,56.0411491394043000,53,99,100,78,82,15624,0,0,0,0,2147121499,2147767286,2147573787,2147568484,75,2,13,10008
1368810036,5809,1003.7899780273438000,36.1751594543457000,572.4411010742188000,4.0996780395507810,56.2272186279296900,56,100,100,78,82,15625,0,0,0,0,2147122816,2147776000,2147572150,2147566912,208,2,13,29602
1368813636,5809,1002.9500122070312000,37.1329917907714840,572.7388916015625000,4.0904159545898440,56.0773200988769500,55,97,100,77,81,15624,0,0,0,0,2147122358,2147771958,2147574070,2147566409,3482,2,13,11837
1368817236,5806,1009.9099731445312000,37.8954010009765600,572.6987304687500000,4.0916671752929690,55.9573707580566400,54,96,99,77,81,15623,0,0,0,0,2147123712,2147768585,2147576128,2147567030,133,2,13,22052
1368820836,5811,1000.0000000000000000,36.8060302734375000,572.8192749023438000,4.0879168510437010,56.1277084350585940,55,98,100,78,82,15623,0,0,0,0,2147123986,2147768566,2147572790,2147564416,2858,2,13,58538
1368824436,5808,1002.8300170898438000,39.8738708496093750,572.9848022460938000,4.0827689170837400,55.6639099121093750,56,99,100,78,80,15625,0,0,0,0,2147120987,2147771291,2147570953,2147566372,485,2,13,33354
1368828036,5811,1001.3599853515625000,39.3978385925293000,573.4291992187500000,4.0689468383789060,55.7456817626953100,54,97,99,78,81,15625,0,0,0,0,2147121993,2147769682,2147570587,2147566034,112,2,13,19279
1368831636,5812,1003.1199951171875000,36.4094810485839840,573.5709228515625000,4.0645408630371090,56.1970481872558600,54,97,99,77,82,15623,0,0,0,0,2147124242,2147771913,2147574902,2147567250,96,2,13,60826
1368835236,5809,996.6799926757812000,37.9942016601562500,573.4838867187500000,4.0672450065612790,55.9554100036621100,54,98,99,78,82,15623,0,0,0,0,2147121106,2147771657,2147572726,2147563949,132,2,13,24409
1368838836,5809,1004.5900268554688000,39.0201683044433600,573.6704711914062000,4.0614409446716310,55.7987213134765600,54,98,101,76,82,15619,0,0,0,0,2147122834,2147768466,2147573147,2147571081,169,2,13,43656
1368842436,5809,1005.9899902343750000,37.1932716369628900,573.0963745117188000,4.0792961120605470,56.0708007812500000,54,96,100,78,82,15623,0,0,0,0,2147121234,2147769069,2147575771,2147565293,88,3,13,45652
1368846036,5811,1006.5200195312500000,38.6545791625976560,573.0692749023438000,4.0801410675048830,55.8465385437011700,54,99,100,78,82,15621,0,0,0,0,2147121856,2147766518,2147570276,2147566701,3400,2,13,12331
1368849636,5809,1012.4400024414062000,39.6390914916992200,573.0733032226562000,4.0800170898437500,55.7033500671386700,55,97,100,77,81,15621,0,0,0,0,2147123017,2147770660,2147573970,2147565110,3566,2,13,38968
1368853236,5811,1007.8699951171875000,35.4796791076660160,573.0833740234375000,4.0796999931335450,56.3347702026367200,55,97,99,79,82,15623,0,0,0,0,2147121947,2147771483,2147570651,2147566025,64,2,13,43689
1368856836,5811,1009.1400146484375000,36.7010002136230500,573.0949707031250000,4.0793418884277340,56.1469688415527340,54,97,98,78,81,15621,0,0,0,0,2147123446,2147769581,2147573476,2147566034,3411,2,13,63880
1368860436,5811,1009.0100097656250000,40.3629188537597660,573.3328857421875000,4.0719408988952640,55.5997886657714840,54,99,98,77,81,15621,0,0,0,0,2147124004,2147768493,2147571830,2147569115,860,2,13,45942
1368864036,5808,1004.0599975585938000,39.9954681396484400,573.4583129882812000,4.0680432319641110,55.6534996032714840,55,99,100,78,82,15540,0,0,0,0,2147122651,2147768146,2147574409,2147567341,1073,3,13,42729
1368867636,5809,1007.7399902343750000,39.8452415466308600,573.4688720703125000,4.0677127838134770,55.6783485412597660,55,99,99,78,81,15541,0,0,0,0,2147120237,2147763730,2147574171,2147566628,228,2,13,5282
1368871236,5808,1004.5800170898438000,40.0282287597656250,573.3856201171875000,4.0703048706054690,55.6492500305175800,55,99,100,78,83,15541,0,0,0,0,2147120274,2147770093,2147570432,2147565540,3464,2,13,41120
1368874836,5812,1003.0800170898438000,40.8752288818359400,573.7205810546875000,4.0598812103271480,55.5281105041503900,55,98,101,78,81,15540,0,0,0,0,2147121627,2147767076,2147572187,2147568374,60,2,13,13751
1368878436,5811,1004.9699707031250000,41.2537002563476560,574.3162231445312000,4.0413532257080080,55.4741592407226560,55,98,99,79,82,15538,0,0,0,0,2147122294,2147772973,2147575981,2147566034,3350,2,13,19331
1368882036,5810,1005.4699707031250000,38.7390518188476560,574.0150756835938000,4.0507221221923830,55.8435287475585940,55,98,99,77,81,15542,0,0,0,0,2147123346,2147770770,2147575460,2147568914,65,3,13,1723
1368885636,5808,1007.7199707031250000,41.1632499694824200,573.6578979492188000,4.0618319511413570,55.4841995239257800,55,100,100,79,81,15532,0,0,0,0,2147121627,2147771995,2147575899,2147567597,3560,2,13,16182
1368889236,5810,1009.6300048828125000,41.1455497741699200,573.7180786132812000,4.0599589347839355,55.4822196960449200,56,96,100,77,80,15525,0,0,0,0,2147122587,2147770605,2147576009,2147562377,3359,2,13,50264
1368892836,5809,1005.1400146484375000,40.5984611511230500,573.6738281250000000,4.0613379478454590,55.5678901672363300,55,98,99,79,80,15521,0,0,0,0,2147120256,2147768256,2147566930,2147564096,144,2,13,64337
1368896436,5808,1013.6099853515625000,41.6360702514648440,573.3848266601562000,4.0703282356262210,55.4120903015136700,54,98,100,79,80,15522,0,0,0,0,2147126528,2147763090,2147575497,2147567323,3365,2,13,60608
1368900036,5810,1017.6099853515625000,38.0850181579589840,572.5850830078125000,4.0952000617980960,55.9349708557128900,55,97,100,77,81,15520,0,0,0,0,2147122816,2147767963,2147574326,2147565595,3498,2,13,64069
1368903636,5810,1013.9199829101562000,38.7955589294433600,572.5996704101562000,4.0947461128234860,55.8270492553710940,54,98,99,77,83,15519,0,0,0,0,2147122505,2147768356,2147570550,2147565248,165,2,13,58872
1368907256,5810,1012.7299804687500000,38.9800491333007800,572.8701782226562000,4.0863318443298340,55.7964401245117200,54,97,100,78,81,15520,0,0,0,0,2147121590,2147765924,2147575030,2147567917,3225,2,13,4350
